Back to catalog

CZ-4 DEB

AliveSSO
NORAD 20894·DEBRIS·🇨🇳 China

Launched Sep 3, 1990 from Taiyuan Satellite Launch Center

Loading…

Next Passes (next 24 hours)

TLE

FreshSource: Space-Track

Epoch: Sep 13, 2026, 05:24 UTC

1 20894U 90081BE  26256.22529228  .00000975  00000-0  35633-3 0  9998
2 20894  98.5567 254.4272 0019485  46.9767  12.6690 14.35087746862990

Track CZ-4 DEB in real time with AllMySat

Download on the App Store